ONDOSAT-OWL-5

operational
NORAD ID: 62396 Int'l Des: NNA 2024-247 Owner: ONDO Country: MN
LEOCIRCULAR

About ONDOSAT-OWL-5

Description loading...

Live Position

Loading 3D Globe...

Upcoming Passes

Altitude History

Altitude vs Time

uPlot chart will show altitude changes over time

Two-Line Element Set

1 62396U 24247V 25311.98470604 .00035676 00000-0 10326-2 0 9996
2 62396 44.9980 47.1014 0008083 321.2974 38.7332 15.35019550 49290
Epoch: Nov 7, 2025 • Age: 77 hours

Current Status

Altitude 456.2 km
Velocity 7.64 km/s
Sub-Earth Point 20.25°N, 63.84°W
Launch Date Dec 21, 2024
Age 0.8 years
Type other

Technical Details

Classification Payload
Mass 0.25 kg
Dry Mass 0.25 kg
Total Mass 0.25 kg
Length 0.05 m
Diameter 0.05 m
Span 0.05 m
Shape Box
Manufacturer ONDO
Bus Type Cubesat 0.5U
Phase Status In Orbit
Owner/State ONDO/MN

Large Constellations

Loading constellations...